Check out our new BloomSky Weather System.

Active alerts


No alerts


Thunder radar  blitzortung!


Rain radar more information rain snow radar


Visit our other weather sites:

Template documentation
and downloads

And another site



Weather Underground History page Text

Daily Summary for March 29, 2017 Units:  Metric    English   Both
« Previous Day
Next Day »
Daily Weekly Monthly Yearly Custom
  High: Low: Average:
Temperature: 27.2 °C 18.8 °C 23.1 °C
Dew Point: 23.8 °C 18.4 °C 20.9 °C
Humidity: 100 % 74 % 88 %
Wind Speed: 27.4 km/h 0 km/h 5.3 km/h
Wind Gust: 40.2 km/h - -
Wind:- - SSE
Pressure: 1010.4 hPa 1005 hPa -
Precipitation: 63.5 mm    
Historical Graphs
 
 
Tabular Data for March 29, 2017
Time Temperature Dew Point Pressure Wind Wind Speed Wind Gust Humidity Rainfall Rate (Hourly)
00:00 24.3 °C 21.2 °C 1006.7 hPa SE 16.1 km/h 30.6 km/h 83 % 0 mm
00:05 24.3 °C 21.2 °C 1006.3 hPa SE 22.5 km/h 38.6 km/h 83 % 0 mm
00:10 24.3 °C 21.2 °C 1006.3 hPa SE 17.7 km/h 38.6 km/h 83 % 0 mm
00:15 24.2 °C 21.1 °C 1006.3 hPa SE 19.3 km/h 38.6 km/h 83 % 0 mm
00:20 24.2 °C 21.1 °C 1006 hPa South 14.5 km/h 35.4 km/h 83 % 0 mm
00:25 24.2 °C 21.1 °C 1006 hPa SSE 12.9 km/h 35.4 km/h 83 % 0 mm
00:30 24.1 °C 21 °C 1006 hPa SSE 11.3 km/h 35.4 km/h 83 % 0 mm
00:35 24.1 °C 21 °C 1006 hPa SSE 14.5 km/h 33.8 km/h 83 % 0 mm
00:40 24.1 °C 21.2 °C 1006 hPa ESE 12.9 km/h 33.8 km/h 84 % 0 mm
00:45 24 °C 21.1 °C 1005.6 hPa SE 11.3 km/h 33.8 km/h 84 % 0 mm
00:50 24 °C 21.1 °C 1005.3 hPa East 27.4 km/h 35.4 km/h 84 % 0 mm
00:55 23.9 °C 21 °C 1005.6 hPa SE 17.7 km/h 35.4 km/h 84 % 0 mm
01:00 23.9 °C 21 °C 1005.6 hPa SSE 11.3 km/h 35.4 km/h 84 % 0 mm
01:05 23.9 °C 21 °C 1005.6 hPa ESE 22.5 km/h 37 km/h 84 % 0 mm
01:10 23.9 °C 21 °C 1005.6 hPa SSW 17.7 km/h 37 km/h 84 % 0 mm
01:15 23.9 °C 20.8 °C 1005.6 hPa SE 11.3 km/h 37 km/h 83 % 0 mm
01:20 23.8 °C 20.7 °C 1005.6 hPa ESE 22.5 km/h 29 km/h 83 % 0 mm
01:25 23.8 °C 20.7 °C 1005.6 hPa ESE 16.1 km/h 29 km/h 83 % 0 mm
01:30 23.8 °C 20.7 °C 1005.3 hPa SE 14.5 km/h 29 km/h 83 % 0 mm
01:35 23.8 °C 20.7 °C 1005.6 hPa SW 9.7 km/h 29 km/h 83 % 0 mm
01:40 23.8 °C 20.7 °C 1006 hPa SSE 11.3 km/h 29 km/h 83 % 0 mm
01:45 23.8 °C 20.7 °C 1006 hPa SE 9.7 km/h 29 km/h 83 % 0 mm
01:51 23.8 °C 20.7 °C 1006.3 hPa South 14.5 km/h 27.4 km/h 83 % 0 mm
01:56 23.8 °C 20.7 °C 1006 hPa SSE 16.1 km/h 30.6 km/h 83 % 0 mm
02:01 23.8 °C 20.7 °C 1006 hPa SSE 17.7 km/h 30.6 km/h 83 % 0 mm
02:06 23.8 °C 20.7 °C 1006.3 hPa SSE 17.7 km/h 30.6 km/h 83 % 0 mm
02:11 23.8 °C 20.7 °C 1006.3 hPa SE 11.3 km/h 27.4 km/h 83 % 0 mm
02:16 23.8 °C 20.7 °C 1006.3 hPa ESE 17.7 km/h 29 km/h 83 % 0 mm
02:21 23.8 °C 20.7 °C 1005.6 hPa ESE 17.7 km/h 29 km/h 83 % 0 mm
02:26 23.7 °C 20.6 °C 1005.6 hPa SSW 19.3 km/h 29 km/h 83 % 0 mm
02:31 23.7 °C 20.6 °C 1005.6 hPa SSW 17.7 km/h 27.4 km/h 83 % 0 mm
02:36 23.7 °C 20.6 °C 1005.6 hPa SSW 8 km/h 27.4 km/h 83 % 0 mm
02:41 23.6 °C 20.5 °C 1005.3 hPa ESE 12.9 km/h 24.1 km/h 83 % 0 mm
02:46 23.7 °C 20.6 °C 1005.3 hPa SE 14.5 km/h 29 km/h 83 % 0 mm
02:51 23.7 °C 20.6 °C 1005.3 hPa SE 20.9 km/h 29 km/h 83 % 0 mm
02:56 23.7 °C 20.6 °C 1005 hPa SE 11.3 km/h 29 km/h 83 % 0 mm
03:01 23.7 °C 20.6 °C 1005 hPa SE 16.1 km/h 27.4 km/h 83 % 0 mm
03:06 23.6 °C 20.5 °C 1005 hPa ESE 22.5 km/h 27.4 km/h 83 % 0 mm
03:11 23.7 °C 20.6 °C 1005 hPa ESE 17.7 km/h 32.2 km/h 83 % 0 mm
03:16 23.6 °C 20.5 °C 1005.3 hPa SE 14.5 km/h 32.2 km/h 83 % 0 mm
03:21 23.6 °C 20.5 °C 1005 hPa SSE 20.9 km/h 32.2 km/h 83 % 0 mm
03:26 23.6 °C 20.5 °C 1005 hPa East 20.9 km/h 32.2 km/h 83 % 0 mm
03:31 23.7 °C 20.6 °C 1005 hPa South 22.5 km/h 32.2 km/h 83 % 0 mm
03:36 23.6 °C 20.5 °C 1005.3 hPa East 12.9 km/h 32.2 km/h 83 % 0 mm
03:41 23.6 °C 20.5 °C 1005.3 hPa SE 19.3 km/h 32.2 km/h 83 % 0 mm
03:46 23.6 °C 20.5 °C 1005.3 hPa South 12.9 km/h 30.6 km/h 83 % 0 mm
03:51 23.6 °C 20.3 °C 1005.3 hPa SE 9.7 km/h 30.6 km/h 82 % 0 mm
03:56 23.7 °C 20.4 °C 1005.3 hPa SE 14.5 km/h 32.2 km/h 82 % 0 mm
04:01 23.6 °C 20.3 °C 1005.6 hPa ESE 17.7 km/h 32.2 km/h 82 % 0 mm
04:06 23.6 °C 20.3 °C 1006.3 hPa SSW 3.2 km/h 32.2 km/h 82 % 0 mm
04:11 23.6 °C 20.5 °C 1007.3 hPa SSE 9.7 km/h 27.4 km/h 83 % 0 mm
04:16 23.6 °C 20.5 °C 1008 hPa SSW 3.2 km/h 27.4 km/h 83 % 0 mm
04:21 23.6 °C 20.5 °C 1008 hPa SE 6.4 km/h 17.7 km/h 83 % 0 mm
04:26 23.6 °C 20.5 °C 1008.4 hPa SSW 8 km/h 17.7 km/h 83 % 0 mm
04:31 23.7 °C 20.4 °C 1008.4 hPa SSW 16.1 km/h 22.5 km/h 82 % 0 mm
04:36 23.7 °C 20.4 °C 1008.7 hPa South 6.4 km/h 22.5 km/h 82 % 0 mm
04:41 23.7 °C 20.4 °C 1009.4 hPa SSW 1.6 km/h 22.5 km/h 82 % 0 mm
04:46 23.8 °C 20.5 °C 1009.4 hPa SSW 1.6 km/h 16.1 km/h 82 % 0 mm
04:51 23.7 °C 20.4 °C 1009.4 hPa South 4.8 km/h 12.9 km/h 82 % 0 mm
04:56 23.7 °C 20.6 °C 1009.4 hPa SSE 1.6 km/h 12.9 km/h 83 % 0 mm
05:01 23.7 °C 20.6 °C 1009.4 hPa South 3.2 km/h 12.9 km/h 83 % 0 mm
05:07 23.7 °C 20.6 °C 1009.4 hPa SE 4.8 km/h 11.3 km/h 83 % 0 mm
05:12 23.7 °C 20.6 °C 1009.4 hPa SSE 1.6 km/h 11.3 km/h 83 % 0 mm
05:17 23.7 °C 20.6 °C 1009 hPa SSE 1.6 km/h 11.3 km/h 83 % 0 mm
05:22 23.6 °C 20.5 °C 1009 hPa SE 1.6 km/h 6.4 km/h 83 % 0 mm
05:27 23.6 °C 20.5 °C 1009 hPa Calm   6.4 km/h 83 % 0 mm
05:32 23.4 °C 20.3 °C 1009 hPa Calm   6.4 km/h 83 % 0 mm
05:37 23.3 °C 20.4 °C 1008.7 hPa Calm   4.8 km/h 84 % 0 mm
05:42 23.3 °C 20.4 °C 1008.7 hPa Calm   3.2 km/h 84 % 0 mm
05:47 23.3 °C 20.6 °C 1008.7 hPa Calm   3.2 km/h 85 % 0 mm
05:52 23.2 °C 20.5 °C 1008.7 hPa Calm   1.6 km/h 85 % 0 mm
05:57 23.2 °C 20.5 °C 1008.4 hPa Calm   1.6 km/h 85 % 0 mm
06:02 23.1 °C 20.4 °C 1008.7 hPa Calm     85 % 0 mm
06:07 23.1 °C 20.4 °C 1008.7 hPa Calm     85 % 0 mm
06:12 23.1 °C 20.6 °C 1008.7 hPa Calm     86 % 0 mm
06:17 23 °C 20.5 °C 1008.7 hPa Calm     86 % 0 mm
06:22 22.9 °C 20.4 °C 1008.7 hPa Calm     86 % 0 mm
06:27 22.9 °C 20.4 °C 1008.7 hPa Calm     86 % 0 mm
06:32 22.8 °C 20.5 °C 1008.4 hPa Calm     87 % 0 mm
06:37 22.8 °C 20.5 °C 1008.7 hPa Calm   1.6 km/h 87 % 0 mm
06:42 22.7 °C 20.4 °C 1008.7 hPa Calm   1.6 km/h 87 % 0 mm
06:47 22.7 °C 20.4 °C 1008.7 hPa Calm   1.6 km/h 87 % 0 mm
06:52 22.7 °C 20.6 °C 1008.4 hPa SE 1.6 km/h   88 % 0 mm
06:57 22.6 °C 20.5 °C 1008.4 hPa Calm   1.6 km/h 88 % 0 mm
07:02 22.5 °C 20.4 °C 1008.4 hPa East 1.6 km/h 1.6 km/h 88 % 0 mm
07:07 22.5 °C 20.4 °C 1008.4 hPa Calm   1.6 km/h 88 % 0 mm
07:12 22.4 °C 20.3 °C 1008.4 hPa Calm   1.6 km/h 88 % 0 mm
07:13 22.4 °C 20.3 °C 1008.4 hPa ESE 1.6 km/h 1.6 km/h 88 % 0 mm
07:18 22.4 °C 20.3 °C 1008 hPa ENE 1.6 km/h 3.2 km/h 88 % 0 mm
07:23 22.4 °C 20.3 °C 1008 hPa East 3.2 km/h 3.2 km/h 88 % 0 mm
07:28 22.4 °C 20.3 °C 1008.4 hPa Calm   4.8 km/h 88 % 0 mm
07:33 22.4 °C 20.3 °C 1008 hPa Calm   4.8 km/h 88 % 0 mm
07:38 22.5 °C 20.4 °C 1008 hPa NE 1.6 km/h 6.4 km/h 88 % 0 mm
07:43 22.6 °C 20.5 °C 1008.4 hPa Calm   8 km/h 88 % 0 mm
07:49 22.6 °C 20.5 °C 1008.4 hPa East 1.6 km/h 8 km/h 88 % 0 mm
07:54 22.7 °C 20.6 °C 1008.7 hPa ENE 3.2 km/h 8 km/h 88 % 0 mm
07:59 22.8 °C 20.5 °C 1008.4 hPa East 6.4 km/h 6.4 km/h 87 % 0 mm
08:04 22.9 °C 20.6 °C 1008.4 hPa Calm   8 km/h 87 % 0 mm
08:09 23 °C 20.7 °C 1008.7 hPa ESE 3.2 km/h 9.7 km/h 87 % 0 mm
08:14 23.1 °C 20.8 °C 1008.7 hPa SE 3.2 km/h 9.7 km/h 87 % 0 mm
08:19 23 °C 20.7 °C 1008.4 hPa NE 4.8 km/h 9.7 km/h 87 % 0 mm
08:24 23 °C 20.7 °C 1009 hPa SE 3.2 km/h 9.7 km/h 87 % 0 mm
08:29 22.9 °C 20.6 °C 1009 hPa Calm   9.7 km/h 87 % 0 mm
08:34 22.9 °C 20.4 °C 1009.4 hPa Calm   11.3 km/h 86 % 0 mm
08:39 22.9 °C 20.4 °C 1009.4 hPa North 1.6 km/h 11.3 km/h 86 % 0 mm
08:44 22.9 °C 20.6 °C 1009.7 hPa Calm   11.3 km/h 87 % 0 mm
08:49 22.9 °C 20.6 °C 1009.4 hPa North 3.2 km/h 4.8 km/h 87 % 0 mm
08:54 22.9 °C 20.6 °C 1009.4 hPa North 3.2 km/h 4.8 km/h 87 % 0 mm
08:59 22.8 °C 20.5 °C 1009.4 hPa NNE 1.6 km/h 4.8 km/h 87 % 0 mm
09:04 22.8 °C 20.5 °C 1009 hPa NNW 3.2 km/h 4.8 km/h 87 % 0 mm
09:09 22.7 °C 20.6 °C 1008.7 hPa North 1.6 km/h 6.4 km/h 88 % 0 mm
09:14 22.6 °C 20.5 °C 1008.7 hPa NNW 3.2 km/h 8 km/h 88 % 0 mm
09:19 22.6 °C 20.7 °C 1009 hPa NW 1.6 km/h 8 km/h 89 % 0 mm
09:24 22.6 °C 20.7 °C 1009.4 hPa NW 3.2 km/h 8 km/h 89 % 0 mm
09:29 22.3 °C 20.2 °C 1009.4 hPa NNW 1.6 km/h 8 km/h 88 % 0 mm
09:34 22.1 °C 20.2 °C 1009 hPa West 3.2 km/h 8 km/h 89 % 0 mm
09:39 21.9 °C 20 °C 1009 hPa NNW 3.2 km/h 11.3 km/h 89 % 0 mm
09:44 21.8 °C 20.1 °C 1009 hPa NNW 4.8 km/h 14.5 km/h 90 % 0 mm
09:49 21.7 °C 20.2 °C 1009 hPa NNW 9.7 km/h 16.1 km/h 91 % 0 mm
09:54 21.6 °C 20.2 °C 1008.7 hPa ENE 20.9 km/h 20.9 km/h 92 % 0 mm
09:59 21.4 °C 20.2 °C 1008.4 hPa NNW 8 km/h 20.9 km/h 93 % 0 mm
10:04 21.2 °C 20.2 °C 1008.7 hPa WNW 17.7 km/h 20.9 km/h 94 % 0.51 mm
10:09 21 °C 20 °C 1009.4 hPa WNW 19.3 km/h 20.9 km/h 94 % 1.02 mm
10:14 20.7 °C 19.9 °C 1009.4 hPa NE 14.5 km/h 29 km/h 95 % 1.02 mm
10:19 20.9 °C 20.4 °C 1009.7 hPa NW 12.9 km/h 29 km/h 97 % 4.57 mm
10:24 20.4 °C 19.6 °C 1010.4 hPa NW 3.2 km/h 29 km/h 95 % 9.65 mm
10:29 20.2 °C 19.7 °C 1010 hPa East 8 km/h 27.4 km/h 97 % 17.27 mm
10:35 19.4 °C 18.7 °C 1008 hPa NE 11.3 km/h 27.4 km/h 96 % 30.23 mm
10:40 19.1 °C 18.6 °C 1006.3 hPa ENE 17.7 km/h 27.4 km/h 97 % 42.67 mm
10:45 19.1 °C 18.6 °C 1006.7 hPa WNW 3.2 km/h 33.8 km/h 97 % 46.74 mm
10:50 18.9 °C 18.4 °C 1008 hPa East 17.7 km/h 40.2 km/h 97 % 47.24 mm
10:55 19.4 °C 19.1 °C 1008.4 hPa ESE 11.3 km/h 40.2 km/h 98 % 47.24 mm
11:00 20.1 °C 19.9 °C 1008 hPa SE 6.4 km/h 40.2 km/h 99 % 47.24 mm
11:05 20.2 °C 19.9 °C 1008.4 hPa ESE 12.9 km/h 32.2 km/h 98 % 46.99 mm
11:10 20.3 °C 20 °C 1008.4 hPa ESE 14.5 km/h 32.2 km/h 98 % 46.48 mm
11:15 20.4 °C 20.1 °C 1008.4 hPa NE 16.1 km/h 30.6 km/h 98 % 42.93 mm
11:20 20.4 °C 20.1 °C 1008.4 hPa ENE 6.4 km/h 20.9 km/h 98 % 37.34 mm
11:25 20.4 °C 20.1 °C 1008.4 hPa SE 3.2 km/h 20.9 km/h 98 % 30.23 mm
11:30 20.4 °C 20.1 °C 1008 hPa Calm   16.1 km/h 98 % 17.27 mm
11:35 20.4 °C 20.1 °C 1008.4 hPa SE 3.2 km/h 17.7 km/h 98 % 4.83 mm
11:40 20.6 °C 20.4 °C 1008.4 hPa SE 3.2 km/h 17.7 km/h 99 % 0.76 mm
11:45 20.6 °C 20.4 °C 1008.4 hPa ESE 9.7 km/h 17.7 km/h 99 % 0.25 mm
11:50 20.7 °C 20.5 °C 1008.7 hPa ESE 8 km/h 16.1 km/h 99 % 0.25 mm
11:55 20.8 °C 20.6 °C 1008.7 hPa ESE 8 km/h 19.3 km/h 99 % 0.25 mm
12:00 20.9 °C 20.7 °C 1008.7 hPa SE 8 km/h 19.3 km/h 99 % 0.25 mm
12:05 20.9 °C 20.7 °C 1009.4 hPa ESE 14.5 km/h 19.3 km/h 99 % 0.51 mm
12:10 20.9 °C 20.7 °C 1009 hPa SW 4.8 km/h 19.3 km/h 99 % 2.79 mm
12:15 20.7 °C 20.4 °C 1009 hPa SE 14.5 km/h 25.7 km/h 98 % 5.59 mm
12:17 20.6 °C 20.3 °C 1009 hPa SE 16.1 km/h 25.7 km/h 98 % 5.59 mm
12:22 20.1 °C 19.8 °C 1009.4 hPa SE 19.3 km/h 25.7 km/h 98 % 6.1 mm
12:27 19.6 °C 19.1 °C 1009.4 hPa SSW 9.7 km/h 25.7 km/h 97 % 6.1 mm
12:32 19.1 °C 18.6 °C 1008.7 hPa ESE 9.7 km/h 25.7 km/h 97 % 6.86 mm
12:37 19.1 °C 18.8 °C 1009 hPa SE 11.3 km/h 25.7 km/h 98 % 7.11 mm
12:42 19.3 °C 19.1 °C 1009.4 hPa SSE 9.7 km/h 22.5 km/h 99 % 8.38 mm
12:47 19.1 °C 18.8 °C 1008.7 hPa ESE 6.4 km/h 20.9 km/h 98 % 10.67 mm
12:52 18.9 °C 18.6 °C 1008.7 hPa ESE 3.2 km/h 20.9 km/h 98 % 11.94 mm
12:57 18.9 °C 18.7 °C 1008.7 hPa Calm   19.3 km/h 99 % 12.7 mm
13:02 18.8 °C 18.6 °C 1008.7 hPa SSE 3.2 km/h 14.5 km/h 99 % 13.46 mm
13:07 18.9 °C 18.7 °C 1008.7 hPa Calm   9.7 km/h 99 % 13.72 mm
13:12 19 °C 18.8 °C 1008.4 hPa Calm   6.4 km/h 99 % 12.19 mm
13:17 19.1 °C 18.9 °C 1008.4 hPa ENE 4.8 km/h 4.8 km/h 99 % 10.16 mm
13:22 19.2 °C 19 °C 1008.4 hPa ESE 4.8 km/h 9.7 km/h 99 % 9.65 mm
13:27 19.5 °C 19.3 °C 1008 hPa East 1.6 km/h 9.7 km/h 99 % 9.65 mm
13:32 19.9 °C 19.9 °C 1008 hPa East 3.2 km/h 9.7 km/h 100 % 8.89 mm
13:37 20.3 °C 20.3 °C 1008 hPa East 3.2 km/h 9.7 km/h 100 % 8.64 mm
13:42 20.7 °C 20.7 °C 1007.7 hPa SSE 3.2 km/h 6.4 km/h 100 % 7.62 mm
13:47 21.2 °C 21.2 °C 1007.7 hPa ESE 1.6 km/h 6.4 km/h 100 % 5.33 mm
13:52 21.5 °C 21.5 °C 1007.7 hPa SW 1.6 km/h 4.8 km/h 100 % 4.06 mm
13:57 21.5 °C 21.5 °C 1007.3 hPa East 3.2 km/h 8 km/h 100 % 3.05 mm
14:02 21.9 °C 21.9 °C 1007.3 hPa SSE 4.8 km/h 8 km/h 100 % 2.29 mm
14:07 22.3 °C 22.3 °C 1007.3 hPa SE 4.8 km/h 8 km/h 100 % 1.52 mm
14:12 22.2 °C 22 °C 1007.3 hPa SE 1.6 km/h 8 km/h 99 % 1.02 mm
14:17 22.6 °C 22.4 °C 1007 hPa ESE 3.2 km/h 8 km/h 99 % 0.25 mm
14:22 22.7 °C 22.4 °C 1007.3 hPa ENE 3.2 km/h 8 km/h 98 % 0.25 mm
14:27 22.9 °C 22.7 °C 1007.3 hPa SE 3.2 km/h 9.7 km/h 99 % 0.25 mm
14:32 23.3 °C 23.1 °C 1007.3 hPa East 6.4 km/h 9.7 km/h 99 % 0.25 mm
14:37 23.2 °C 22.9 °C 1007 hPa South 3.2 km/h 12.9 km/h 98 % 0.25 mm
14:42 23.3 °C 23 °C 1007 hPa Calm   12.9 km/h 98 % 0 mm
14:47 23.7 °C 23.4 °C 1006.7 hPa SSE 1.6 km/h 12.9 km/h 98 % 0 mm
14:52 23.9 °C 23.4 °C 1006.7 hPa SSW 1.6 km/h 9.7 km/h 97 % 0 mm
14:57 24.2 °C 23.7 °C 1006.7 hPa SE 4.8 km/h 8 km/h 97 % 0 mm
14:58 24.3 °C 23.8 °C 1006.7 hPa SSE 6.4 km/h 8 km/h 97 % 0 mm
15:03 24.4 °C 23.7 °C 1006.7 hPa SE 3.2 km/h 8 km/h 96 % 0 mm
15:08 24.4 °C 23.4 °C 1006.7 hPa South 3.2 km/h 9.7 km/h 94 % 0 mm
15:13 24.7 °C 23.3 °C 1006.3 hPa South 3.2 km/h 9.7 km/h 92 % 0 mm
15:18 24.9 °C 23.1 °C 1006.3 hPa SE 4.8 km/h 9.7 km/h 90 % 0 mm
15:23 24.9 °C 22.8 °C 1006 hPa ESE 6.4 km/h 9.7 km/h 88 % 0 mm
15:28 25.1 °C 22.8 °C 1006 hPa South 8 km/h 9.7 km/h 87 % 0 mm
15:33 25.4 °C 22.9 °C 1006 hPa Calm   9.7 km/h 86 % 0 mm
15:38 25.8 °C 22.9 °C 1005.6 hPa South 6.4 km/h 9.7 km/h 84 % 0 mm
15:43 25.9 °C 22.8 °C 1005.6 hPa South 4.8 km/h 9.7 km/h 83 % 0 mm
15:48 25.9 °C 23 °C 1005.6 hPa SSE 1.6 km/h 9.7 km/h 84 % 0 mm
15:53 26.1 °C 22.8 °C 1005.3 hPa ENE 8 km/h 9.7 km/h 82 % 0 mm
15:58 26 °C 22.7 °C 1005.3 hPa ESE 1.6 km/h 9.7 km/h 82 % 0 mm
16:03 25.8 °C 22.5 °C 1005.3 hPa East 3.2 km/h 11.3 km/h 82 % 0 mm
16:08 26 °C 22.9 °C 1005.3 hPa ESE 4.8 km/h 11.3 km/h 83 % 0 mm
16:13 26.3 °C 22.8 °C 1005.6 hPa South 6.4 km/h 11.3 km/h 81 % 0 mm
16:18 26.6 °C 22.9 °C 1005.6 hPa SE 1.6 km/h 9.7 km/h 80 % 0 mm
16:23 26.6 °C 22.9 °C 1005.6 hPa Calm   8 km/h 80 % 0 mm
16:28 26.6 °C 22.9 °C 1005.6 hPa SE 3.2 km/h 8 km/h 80 % 0 mm
16:33 26.7 °C 22.8 °C 1005.6 hPa ENE 1.6 km/h 8 km/h 79 % 0 mm
16:38 26.7 °C 22.3 °C 1005.6 hPa East 3.2 km/h 8 km/h 77 % 0 mm
16:43 26.6 °C 22.2 °C 1005.6 hPa Calm   6.4 km/h 77 % 0 mm
16:48 26.7 °C 22.8 °C 1005.3 hPa NE 3.2 km/h 6.4 km/h 79 % 0 mm
16:53 27 °C 22.4 °C 1005.3 hPa Calm   4.8 km/h 76 % 0 mm
16:58 27.2 °C 23.2 °C 1005.3 hPa ENE 1.6 km/h 8 km/h 79 % 0 mm
17:03 27.1 °C 22.7 °C 1005.3 hPa Calm   8 km/h 77 % 0 mm
17:08 27.1 °C 22.7 °C 1005.6 hPa ENE 6.4 km/h 8 km/h 77 % 0 mm
17:13 26.9 °C 22.7 °C 1005.6 hPa SE 3.2 km/h 8 km/h 78 % 0 mm
17:18 26.8 °C 22.4 °C 1005.6 hPa SE 1.6 km/h 8 km/h 77 % 0 mm
17:23 26.6 °C 22.2 °C 1005.6 hPa NE 4.8 km/h 8 km/h 77 % 0 mm
17:28 26.4 °C 22.3 °C 1005.6 hPa NE 1.6 km/h 8 km/h 78 % 0 mm
17:33 26.4 °C 22 °C 1005.6 hPa Calm   8 km/h 77 % 0 mm
17:38 26.4 °C 21.8 °C 1005.6 hPa ENE 1.6 km/h 8 km/h 76 % 0 mm
17:43 26.4 °C 22 °C 1005.6 hPa ENE 1.6 km/h 8 km/h 77 % 0 mm
17:48 26.4 °C 21.6 °C 1005.6 hPa ESE 1.6 km/h 6.4 km/h 75 % 0 mm
17:53 26.3 °C 21.7 °C 1005.6 hPa Calm   6.4 km/h 76 % 0 mm
17:58 26.5 °C 21.9 °C 1005.6 hPa Calm   6.4 km/h 76 % 0 mm
18:03 26.7 °C 21.7 °C 1005.6 hPa Calm   6.4 km/h 74 % 0 mm
18:08 26.7 °C 21.7 °C 1005.6 hPa Calm   3.2 km/h 74 % 0 mm
18:13 26.6 °C 21.8 °C 1005.6 hPa Calm   3.2 km/h 75 % 0 mm
18:18 26.6 °C 22 °C 1006 hPa Calm   4.8 km/h 76 % 0 mm
18:24 26.6 °C 22 °C 1006 hPa ENE 3.2 km/h 4.8 km/h 76 % 0 mm
18:29 26.5 °C 22.3 °C 1006 hPa SE 4.8 km/h 4.8 km/h 78 % 0 mm
18:34 26.2 °C 22.3 °C 1006 hPa SSE 6.4 km/h 6.4 km/h 79 % 0 mm
18:39 26.1 °C 22.4 °C 1006 hPa Calm   6.4 km/h 80 % 0 mm
18:44 26.1 °C 22.4 °C 1006 hPa Calm   6.4 km/h 80 % 0 mm
18:49 26.1 °C 22.4 °C 1006 hPa Calm   6.4 km/h 80 % 0 mm
18:54 26.2 °C 22.3 °C 1006.3 hPa Calm   4.8 km/h 79 % 0 mm
18:59 26.3 °C 22.4 °C 1006.3 hPa Calm   3.2 km/h 79 % 0 mm
19:01 26.4 °C 22.3 °C 1006.3 hPa ESE 1.6 km/h 3.2 km/h 78 % 0 mm
19:06 26.4 °C 22.5 °C 1006.3 hPa Calm   3.2 km/h 79 % 0 mm
19:11 26.3 °C 22.2 °C 1006.3 hPa Calm   3.2 km/h 78 % 0 mm
19:17 26.2 °C 22.3 °C 1006.7 hPa Calm   3.2 km/h 79 % 0 mm
19:22 26.1 °C 22.2 °C 1006.7 hPa Calm   1.6 km/h 79 % 0 mm
19:25 26 °C 22.3 °C 1006.7 hPa ESE 1.6 km/h 1.6 km/h 80 % 0 mm
19:30 25.8 °C 22.1 °C 1006.7 hPa Calm   3.2 km/h 80 % 0 mm
19:35 25.5 °C 22 °C 1006.7 hPa Calm   3.2 km/h 81 % 0 mm
19:40 25.2 °C 21.9 °C 1006.7 hPa Calm   3.2 km/h 82 % 0 mm
19:45 25 °C 21.9 °C 1006.7 hPa Calm   1.6 km/h 83 % 0 mm
19:50 24.8 °C 21.9 °C 1006.7 hPa Calm   1.6 km/h 84 % 0 mm
19:55 24.5 °C 21.8 °C 1007 hPa Calm   4.8 km/h 85 % 0 mm
20:00 24.3 °C 21.8 °C 1007 hPa Calm   4.8 km/h 86 % 0 mm
20:05 24.1 °C 21.8 °C 1007 hPa Calm   4.8 km/h 87 % 0 mm
20:10 23.9 °C 21.8 °C 1007.3 hPa Calm   3.2 km/h 88 % 0 mm
20:15 23.7 °C 21.6 °C 1007.3 hPa Calm   1.6 km/h 88 % 0 mm
20:20 23.6 °C 21.7 °C 1007.3 hPa Calm   1.6 km/h 89 % 0 mm
20:25 23.4 °C 21.7 °C 1007.3 hPa Calm   1.6 km/h 90 % 0 mm
20:30 23.3 °C 21.6 °C 1007.3 hPa Calm   1.6 km/h 90 % 0 mm
20:35 23.1 °C 21.5 °C 1007.7 hPa Calm   1.6 km/h 91 % 0 mm
20:40 22.9 °C 21.4 °C 1007.7 hPa Calm   1.6 km/h 91 % 0 mm
20:45 22.8 °C 21.3 °C 1007.7 hPa Calm     91 % 0 mm
20:50 22.6 °C 21.2 °C 1008 hPa Calm     92 % 0 mm
20:55 22.6 °C 21.4 °C 1008 hPa Calm   1.6 km/h 93 % 0 mm
21:00 22.6 °C 21.4 °C 1008 hPa ESE 3.2 km/h 3.2 km/h 93 % 0 mm
21:05 22.6 °C 21.6 °C 1008 hPa Calm   3.2 km/h 94 % 0 mm
21:10 22.6 °C 21.6 °C 1008.4 hPa Calm   3.2 km/h 94 % 0 mm
21:15 22.4 °C 21.2 °C 1008.4 hPa Calm   3.2 km/h 93 % 0 mm
21:20 22.2 °C 21 °C 1008.4 hPa Calm   1.6 km/h 93 % 0 mm
21:25 22.1 °C 21.1 °C 1008.4 hPa Calm   1.6 km/h 94 % 0 mm
21:30 22 °C 21 °C 1008.4 hPa Calm   1.6 km/h 94 % 0 mm
21:35 21.9 °C 20.9 °C 1008.4 hPa Calm   1.6 km/h 94 % 0 mm
21:40 21.9 °C 21.1 °C 1008.4 hPa Calm   1.6 km/h 95 % 0 mm
21:45 21.8 °C 21 °C 1008.7 hPa Calm   1.6 km/h 95 % 0 mm
21:50 21.7 °C 20.9 °C 1008.7 hPa Calm   1.6 km/h 95 % 0 mm
21:55 21.6 °C 20.8 °C 1008.7 hPa Calm   1.6 km/h 95 % 0 mm
22:00 21.5 °C 20.7 °C 1008.7 hPa Calm   1.6 km/h 95 % 0 mm
22:05 21.4 °C 20.6 °C 1008.7 hPa Calm   1.6 km/h 95 % 0 mm
22:10 21.2 °C 20.4 °C 1009 hPa Calm     95 % 0 mm
22:15 21.1 °C 20.4 °C 1009 hPa Calm     96 % 0 mm
22:20 21.1 °C 20.4 °C 1008.7 hPa Calm   1.6 km/h 96 % 0 mm
22:25 20.9 °C 20.2 °C 1009 hPa Calm   1.6 km/h 96 % 0 mm
22:30 20.7 °C 20 °C 1009 hPa Calm   1.6 km/h 96 % 0 mm
22:35 20.6 °C 19.9 °C 1009 hPa Calm     96 % 0 mm
22:40 20.5 °C 19.8 °C 1009 hPa Calm     96 % 0 mm
22:45 20.4 °C 19.7 °C 1009 hPa Calm     96 % 0 mm
22:50 20.2 °C 19.5 °C 1009.4 hPa Calm     96 % 0 mm
22:55 20.2 °C 19.7 °C 1009 hPa Calm     97 % 0 mm
23:01 20.1 °C 19.6 °C 1009 hPa Calm     97 % 0 mm
23:06 20.1 °C 19.6 °C 1009.4 hPa Calm     97 % 0 mm
23:11 20 °C 19.5 °C 1009.4 hPa Calm     97 % 0 mm
23:16 19.9 °C 19.4 °C 1009.4 hPa Calm     97 % 0 mm
23:21 19.8 °C 19.3 °C 1009.4 hPa Calm   1.6 km/h 97 % 0 mm
23:26 19.7 °C 19.2 °C 1009.4 hPa Calm   1.6 km/h 97 % 0 mm
23:31 19.6 °C 19.1 °C 1009.4 hPa Calm   1.6 km/h 97 % 0 mm
23:36 19.6 °C 19.1 °C 1009.4 hPa Calm     97 % 0 mm
23:41 19.6 °C 19.1 °C 1009.4 hPa Calm     97 % 0 mm
23:46 19.4 °C 18.9 °C 1009 hPa Calm     97 % 0 mm
23:51 19.3 °C 18.8 °C 1009 hPa Calm     97 % 0 mm
23:56 19.3 °C 18.8 °C 1009 hPa Calm     97 % 0 mm
Spring, Texas: Villages of Bridgestone
Compliments of Weather Underground - 2.75 mb

Script developed by  Jim McMurry - jmcmurry@mwt.net Adapted for the template by  Wim van der Kuil - Leuven-Template.eu

You find our weather info also at:

UK Metoffice

WeatherCloud

Weather Underground

Mid-South Weather Network

AWEKAS

Citizen Weather Observer Program (CWOP)

HAMweather, WeatherForYou, PWS Weather

Equipment we use:

Weather-station
Davis Vantage Vue

Weather-program
Meteohub

Weather-server
Debian 7.9 x86 (Guest)

Provider
DreamHost

Davis Vantage Vue

Meteohub

Debian 7.9 x86 (Guest)

DreamHost